Weather History for Munising, MI

Change the Weather History Date:

Saturday, November 16, 2013

  Actual Average (KISQ) Record (KISQ)
Temperature  
Mean Temperature 46 °F -  
Max Temperature 54 °F 40 °F 60 °F (1975)
Min Temperature 37 °F 25 °F 12 °F (1989)
Degree Days  
Heating Degree Days 20    
Moisture  
Dew Point 42 °F    
Average Humidity 85    
Maximum Humidity 90    
Minimum Humidity 77    
Precipitation  
Precipitation 0.88 in - - ()
Sea Level Pressure  
Sea Level Pressure 29.67 in    
Wind  
Wind Speed 10 mph (South)    
Max Wind Speed 17 mph    
Max Gust Speed 32 mph    
Averages and records for this station are not official NWS values.
T = Trace of Precipitation, MM = Missing Value Source: NWS Daily Summary

Daily Weather History Graph

Daily Weather History Graph

Search for Another Location

Airport:

Trip Planner

Search our weather history database for the weather conditions in past years. The results will help you decide how hot, cold, wet, or windy it might be!

Date:

Astronomy

Nov. 16, 2013 Rise Set
Actual Time 7:50 AM EST 5:12 PM EST
Civil Twilight 7:17 AM EST 5:45 PM EST
Nautical Twilight 6:40 AM EST 6:21 PM EST
Astronomical Twilight 6:04 AM EST 6:57 PM EST
Moon 4:49 PM EST (11/16) 6:42 AM EST (11/16)
Length of Visible Light 10h 28m
Length of Day
9h 22m
Waxing Gibbous, 99% of the Moon is Illuminated
Nov 16
Waxing Gibbous
Nov 17
Full
Nov 25
Last Quarter
Dec 2
New
Dec 9
First Quarter

Hourly Weather History & Observations

Time (EST) Temp. Windchill Dew Point Humidity Pressure Visibility Wind Dir Wind Speed Gust Speed Precip Events Conditions
12:56 AM 37.0 °F 31.6 °F 33.1 °F 86% 29.86 in - South 6.9 mph - N/A   Unknown
1:56 AM 37.9 °F 32.1 °F 34.0 °F 86% 29.85 in - South 8.1 mph - N/A   Unknown
2:56 AM 39.0 °F 34.8 °F 36.0 °F 89% 29.84 in - SSW 5.8 mph - N/A   Unknown
3:56 AM 37.9 °F 32.7 °F 34.0 °F 86% 29.83 in - South 6.9 mph - N/A   Unknown
4:56 AM 39.9 °F 35.8 °F 36.0 °F 86% 29.83 in - South 5.8 mph - N/A   Unknown
5:56 AM 41.0 °F 37.1 °F 36.0 °F 82% 29.82 in - South 5.8 mph - N/A   Unknown
6:56 AM 42.1 °F 37.7 °F 36.0 °F 79% 29.81 in - South 6.9 mph - N/A   Unknown
7:56 AM 43.0 °F 38.8 °F 37.0 °F 80% 29.81 in - South 6.9 mph - N/A   Unknown
8:56 AM 45.0 °F 40.1 °F 39.0 °F 80% 29.79 in - SSE 9.2 mph 19.6 mph N/A   Unknown
9:56 AM 46.9 °F - 39.9 °F 77% 29.77 in - South 15.0 mph 23.0 mph N/A   Unknown
10:56 AM 46.9 °F - 39.9 °F 77% 29.75 in - South 16.1 mph 26.5 mph N/A   Unknown
11:56 AM 46.9 °F - 42.1 °F 83% 29.73 in - South 16.1 mph 27.6 mph N/A   Unknown
12:56 PM 46.9 °F - 42.1 °F 83% 29.70 in - South 17.3 mph 27.6 mph N/A   Unknown
1:56 PM 46.9 °F - 43.0 °F 86% 29.66 in - South 15.0 mph 27.6 mph N/A   Unknown
2:56 PM 48.0 °F - 44.1 °F 86% 29.63 in - South 16.1 mph 24.2 mph N/A   Unknown
3:56 PM 48.9 °F - 44.1 °F 83% 29.58 in - South 17.3 mph 32.2 mph 0.01 in   Unknown
4:56 PM 48.9 °F - 46.0 °F 90% 29.59 in - South 11.5 mph 23.0 mph 0.02 in   Unknown
5:56 PM 50.0 °F - 46.0 °F 86% 29.56 in - South 16.1 mph 23.0 mph 0.05 in   Unknown
6:56 PM 51.1 °F - 46.9 °F 86% 29.52 in - South 13.8 mph 23.0 mph 0.17 in   Unknown
7:56 PM 52.0 °F - 48.0 °F 86% 29.48 in - South 13.8 mph 21.9 mph 0.15 in   Unknown
8:56 PM 53.1 °F - 50.0 °F 89% 29.43 in - South 12.7 mph 26.5 mph 0.16 in   Unknown
9:56 PM 54.0 °F - 50.0 °F 86% 29.40 in - South 17.3 mph 28.8 mph 0.27 in   Unknown
10:56 PM 53.1 °F - 50.0 °F 89% 29.39 in - South 12.7 mph 24.2 mph 0.02 in   Unknown
11:56 PM 53.1 °F - 50.0 °F 89% 29.39 in - South 11.5 mph 19.6 mph 0.03 in   Unknown